Regional Weather Roundup
Issued by NWS

Home | Current Version | Previous Version | Graphics & Text | Print | Product List | Glossary On
Versions: 1 2 3 4 5 6 7 8 9 10 11 12 13 14 15 16 17 18 19 20 21 22 23 24 25 26 27 28 29 30 31 32 33 34 35 36 37 38 39 40 41 42 43 44 45 46 47 48 49 50
000
ASUS45 KTFX 231110
RWRMT
MONTANA REGIONAL WEATHER ROUNDUP
NATIONAL WEATHER SERVICE GREAT FALLS MT
500 AM MDT SAT SEP 23 2017

NOTE: "FAIR" INDICATES FEW OR NO CLOUDS BELOW 12000 FEET WITH NO
SIGNIFICANT WEATHER AND/OR OBSTRUCTIONS TO VISIBILITY.

MTZ001>007-043-231200-
WEST OF THE DIVIDE

CITY           SKY/WX    TMP DP  RH WIND       PRES   REMARKS
KALISPELL      CLOUDY    43  36  76 SE7       30.04S
MISSOULA       PTCLDY    34  32  92 CALM      30.08R
BUTTE          CLOUDY    32  30  92 SW3       30.04S
MULLAN PASS    CLOUDY    32  26  78 SW3       30.02R
ANACONDA         N/A     34  28  80 CALM      30.05S
DEER LODGE       N/A     34  30  86 NW3       30.08S
EUREKA           N/A     45  34  65 CALM      30.03S
HAMILTON         N/A     36  34  93 SW3       30.07
LIBBY            N/A     39  37  93 CALM      30.03S
PLAINS           N/A     41  36  82 CALM      30.06R
$$

MTZ008-052>055-231200-
SOUTHWEST MONTANA

CITY           SKY/WX    TMP DP  RH WIND       PRES   REMARKS
BOZEMAN        CLOUDY    37  35  92 SE5       30.06S
DILLON         CLOUDY    35  32  88 CALM      30.03R
W YELLOWSTONE  CLOUDY    30  30 100 W13       30.02S WCI  20
ENNIS          CLOUDY    34  34 100 CALM      30.08S
THREE FORKS      N/A     38  35  89 CALM      30.04S
TWIN BRIDGES     N/A     37  31  79 CALM      30.02S
$$

MTZ009-010-012-014-046-048-049-054-231200-
EAST SLOPES AND CENTRAL MONTANA

CITY           SKY/WX    TMP DP  RH WIND       PRES   REMARKS
CUT BANK       CLOUDY    32  32 100 SE7       30.04S FOG     WCI  26
GREAT FALLS    CLOUDY    36  34  92 SE5       30.06F
MALMSTROM AFB  CLOUDY    37  36  99 S5        30.07F
HELENA         CLOUDY    38  32  79 SW6       30.07S
BOWMANS CRNR   LGT RAIN  32  32 100 S12       30.02F WCI  23
CHOTEAU          N/A     34  34 100 CALM      30.06F
FAIRFIELD        N/A     33  31  93 CALM      30.05R
POWER            N/A     33  33  99 SE6       30.05S WCI  27
RAYNESFORD     CLOUDY    36  36 100 NW3       30.07S
ULM            MOCLDY    33  34 100 SE7       30.07F WCI  27
$$

MTZ011-013-016-021-045-047-050-051-231200-
NORTH CENTRAL MONTANA

CITY           SKY/WX    TMP DP  RH WIND       PRES   REMARKS
HAVRE          CLOUDY    41  37  86 SW3       30.08R
LEWISTOWN      LGT RAIN  36  36 100 SE5       30.06R
N BAR RANCH    CLOUDY    34  34 100 CALM      30.09R
CHINOOK          N/A     43  39  87 CALM      30.08S
DENTON           N/A     39  38  97 N3        30.04S
GEYSER         LGT RAIN  37  37 100 NE3       30.06R FOG
JUDITH GAP     LGT SNOW  32  32  97 SW3       30.05R
WINIFRED       MOCLDY    38  39 100 E6        30.06S
$$

MTZ017>020-022>027-061-062-231200-
NORTHEAST MONTANA

CITY           SKY/WX    TMP DP  RH WIND       PRES   REMARKS
GLASGOW        CLOUDY    44  42  93 E3        30.09S
JORDAN           N/A     44  41  89 E6        30.08S
SIDNEY         CLOUDY    43  40  89 CALM      30.11R
WOLF POINT     CLOUDY    42  38  85 CALM      30.12R
MALTA          CLOUDY    43  41  93 CALM      30.09S
POPLAR           N/A     36  34  93 CALM      30.12S
SCOBEY           N/A     37  32  82 NW1       30.08R
$$

MTZ028>42-056>058-231200-
SOUTHCENTRAL AND SOUTHEAST MONTANA

CITY           SKY/WX    TMP DP  RH WIND       PRES   REMARKS
BAKER          CLOUDY    42  37  82 N6        30.10R
BILLINGS       LGT RAIN  39  38  96 NE8       30.06R
LIVINGSTON     CLOUDY    35  33  92 CALM      30.06R
MILES CITY     CLOUDY    43  38  82 NE5       30.10R
BIG TIMBER     FOG       32  32 100 CALM      30.09R VSB 1/4
EKALAKA          N/A     40  36  86 CALM      30.07R
HARLOWTON      FLURRIES  34  33  96 MISG      30.07R
LAUREL           N/A     39  39 100 NE6       30.08R
$$

REGIONAL REPORTS...DAKOTAS

CITY           SKY/WX    TMP DP  RH WIND       PRES   REMARKS
WILLISTON      CLOUDY    45  41  86 N3        30.09R
MINOT          CLOUDY    47  45  93 NW9       30.06R
BEACH          CLOUDY    41  39  93 N7        30.12R
CROSBY         CLOUDY    43  43 100 NW6       30.10R
TIOGA          CLOUDY    43  43 100 N6        30.10R
WATFORD CITY   CLOUDY    41  41 100 CALM      30.09R
BISMARCK       CLOUDY    49  47  93 N9        30.04F
GRAND FORKS    CLOUDY    51  49  92 NW13      29.94F
FARGO          CLOUDY    53  50  89 NW13      29.96R
BUFFALO SD       N/A     43  40  89 N6        30.01F
$$

REGIONAL REPORTS...WYOMING/IDAHO/WASHINGTON

CITY           SKY/WX    TMP DP  RH WIND       PRES   REMARKS
GILLETTE       CLOUDY    40  36  86 NE9       30.04S
SHERIDAN       CLOUDY    40  39  97 CALM      30.05S
BUFFALO WY     LGT RAIN  38  35  89 SE7       30.04F
CODY           CLOUDY    36  35  96 CALM      30.04F
IDAHO FALLS    CLEAR     35  32  88 CALM      30.03S
SALMON         CLOUDY    38  33  82 CALM      30.04R
BOISE          CLEAR     38  35  89 SE7       30.02R
SPOKANE        CLOUDY    45  41  86 S7        30.03S
$$

REGIONAL REPORTS...ALBERTA

CITY           SKY/WX    TMP DP  RH WIND       PRES   REMARKS
EDMONTON       CLOUDY    39  37  93 SE5       30.04F
CALGARY        MOCLDY    36  32  87 SE8       30.01S WCI  29
LETHBRIDGE     CLOUDY    37  34  87 SE6       30.03S
MEDICINE HAT   CLOUDY    41  37  87 CALM      30.06S
$$

REGIONAL REPORTS...SASKATCHEWAN

CITY           SKY/WX    TMP DP  RH WIND       PRES   REMARKS
SWIFT CURRENT    N/A     37  32  81 SW6       30.06S
REGINA         CLOUDY    41  39  93 W2        30.09R
SASKATOON      LGT RAIN  41  41 100 SW2       30.10S
$$



USA.gov is the U.S. government's official web portal to all federal, state and local government web resources and services.